Location: Niagara
(43.2500°N, 79.0670°W)
Time: 05:09:23
(UTC-04:00)

Vanguard 2 Rocket - All Passes

Search period start: 16 July 2018 00:00
Search period end: 26 July 2018 00:00
Orbit: 553 x 3327 km, 32.9° (Epoch: 15 July)

Date Brightness Start Highest point End Pass type
(mag) Time Alt. Az. Time Alt. Az. Time Alt. Az.
16 Jul - 03:38:51 10° SSW 03:44:14 23° SE 03:52:05 10° E visible
16 Jul - 05:48:43 10° WSW 05:56:58 48° SSE 06:11:08 10° E daylight
16 Jul - 08:00:52 10° W 08:11:54 51° S 08:29:22 10° ESE daylight
16 Jul - 10:14:57 10° W 10:27:53 36° SSW 10:44:47 10° SSE daylight
16 Jul - 12:34:39 10° WSW 12:43:26 15° SW 12:52:49 10° SSW daylight
17 Jul - 02:42:21 10° SSE 02:45:20 13° SE 02:48:56 10° ESE visible
17 Jul - 04:50:14 10° SW 04:57:09 40° SSE 05:08:48 10° E visible
17 Jul - 07:01:41 10° WSW 07:11:13 52° S 07:27:14 10° ESE daylight
17 Jul - 09:14:50 10° W 09:26:47 41° SSW 09:43:57 10° SE daylight
17 Jul - 11:31:26 10° WSW 11:42:34 21° SW 11:55:29 10° S daylight
18 Jul - 03:52:08 10° SSW 03:57:46 29° SSE 04:06:36 10° E visible
18 Jul - 06:02:48 10° WSW 06:10:55 49° S 06:24:59 10° ESE daylight
18 Jul - 08:15:13 10° W 08:25:53 45° SSW 08:42:31 10° SE daylight
18 Jul - 10:30:01 10° W 10:41:36 27° SSW 10:56:20 10° SSE daylight
19 Jul - 02:54:36 10° S 02:58:45 19° SE 03:04:26 10° ESE visible
19 Jul - 05:04:09 10° SW 05:11:02 44° SSE 05:22:48 10° ESE visible
19 Jul - 07:15:58 10° WSW 07:25:15 47° S 07:40:40 10° ESE daylight
19 Jul - 09:29:34 10° W 09:40:39 33° SSW 09:56:07 10° SSE daylight
19 Jul - 11:49:21 10° WSW 11:56:09 13° SW 12:03:36 10° SSW daylight
20 Jul - 04:05:49 10° SW 04:11:32 35° SSE 04:20:49 10° E visible
20 Jul - 06:17:00 10° WSW 06:24:58 47° S 06:38:39 10° ESE daylight
20 Jul - 08:29:45 10° W 08:39:52 37° SSW 08:55:11 10° SE daylight
20 Jul - 10:46:05 10° WSW 10:55:20 19° SW 11:06:32 10° S daylight
21 Jul - 03:07:49 10° SSW 03:12:23 25° SSE 03:19:04 10° ESE visible
21 Jul - 05:18:16 10° WSW 05:25:02 44° S 05:36:40 10° ESE visible
21 Jul - 07:30:22 10° WSW 07:39:18 40° SSW 07:53:45 10° SE daylight
21 Jul - 09:44:52 10° WSW 09:54:32 24° SSW 10:07:23 10° SSE daylight
22 Jul - 02:10:27 10° S 02:13:28 15° SE 02:17:15 10° ESE visible
22 Jul - 04:19:46 10° SW 04:25:27 39° SSE 04:34:53 10° ESE visible
22 Jul - 06:31:19 10° WSW 06:39:04 42° S 06:52:04 10° SE daylight
22 Jul - 08:44:38 10° WSW 08:53:52 28° SSW 09:07:10 10° SSE daylight
22 Jul - 11:05:54 10° SW 11:09:09 11° SW 11:12:36 10° SSW daylight
23 Jul - 03:21:30 10° SW 03:26:12 30° SSE 03:33:22 10° ESE visible
23 Jul - 05:32:31 10° WSW 05:39:07 42° S 05:50:20 10° ESE daylight
23 Jul - 07:45:01 10° WSW 07:53:23 32° SSW 08:06:19 10° SE daylight
23 Jul - 10:01:29 10° WSW 10:08:28 15° SSW 10:16:56 10° S daylight
24 Jul - 02:23:34 10° SSW 02:27:12 21° SSE 02:32:05 10° ESE visible
24 Jul - 04:33:54 10° WSW 04:39:30 39° S 04:48:45 10° ESE visible
24 Jul - 06:45:49 10° WSW 06:53:11 35° SSW 07:05:06 10° SE daylight
24 Jul - 09:00:15 10° WSW 09:07:54 20° SSW 09:18:04 10° S daylight
25 Jul - 01:26:23 10° S 01:28:20 13° SSE 01:30:33 10° ESE visible
25 Jul - 03:35:28 10° SW 03:40:11 33° SSE 03:47:27 10° ESE visible
25 Jul - 05:46:54 10° WSW 05:53:16 36° S 06:03:44 10° SE daylight
25 Jul - 08:00:07 10° WSW 08:07:31 23° SSW 08:18:06 10° SSE daylight
